www.pogodaiklimat.ru

Погода и климат >> Архив погоды >> Австралия >> Fitzroy Crossing Aero


ПОГОДА в Fitzroy Crossing Aero

  • Прогноз погоды в Fitzroy Crossing Aero
  • Монитор погоды в Fitzroy Crossing Aero
  • Климат города

АРХИВ ПОГОДЫ в Fitzroy Crossing Aero

Время (UTC), дата Ветер
(напр.,м/с)
 
Видим.   Явления Облачность Т
(С)
Тd
(С)
f
(%)
Тe
(С)
Тes
(С)
Комфортность P
(гПа)
Po
(гПа)
Тmin
(С)
Tmax
(С)
R
(мм)
R24
(мм)
S
(см)
07 4.12 Ю 3 н/о н/о +35.7 +20.8 42 +43 +43 опасность
перегрева
1006.4 993.7
09 4.12 ЮЗ 3 н/о н/о +37.4 +19.3 35 +42 +42 опасность
перегрева
1006.2 993.5
10 4.12 СЗ 2 н/о н/о +34.3 +21.0 46 +42 +42 опасность
перегрева
1006.3 993.6
12 4.12 С 1 н/о н/о +31.7 +23.0 60 +42 +42 опасность
перегрева
1007.7 994.9
13 4.12 СВ 4 н/о н/о +31.9 +20.5 51 +39 +39 очень
душно
1009.0 996.2 +38.1
15 4.12 СВ 6 н/о н/о +30.7 +18.4 48 +36 +36 очень
душно
1009.3 996.5
16 4.12 С 3 н/о н/о +30.1 +18.5 50 +35 +35 очень
душно
1008.1 995.3
18 4.12 штиль 0 н/о н/о +28.0 +21.1 66 +35 +35 очень
душно
1006.9 994.2
19 4.12 штиль 0 н/о н/о +27.7 +20.5 65 +34 +34 очень
душно
1007.3 994.5
21 4.12 СЗ 3 н/о н/о +26.8 +21.1 71 +34 +34 очень
душно
1008.0 995.2
22 4.12 штиль 0 н/о н/о +29.4 +20.5 59 +36 +36 очень
душно
1009.0 996.2
00 5.12 З 4 н/о н/о +34.0 +20.0 44 +40 +40 очень
душно
1009.5 996.7
01 5.12 З 4 н/о н/о +36.0 +19.0 37 +41 +41 опасность
перегрева
1009.2 996.4 +26.7
03 5.12 ЮВ 3 н/о н/о +38.7 +18.0 30 +42 +42 опасность
перегрева
1008.2 995.4
04 5.12 Ю 4 н/о н/о +39.5 +17.6 28 +42 +42 опасность
перегрева
1006.8 994.1
06 5.12 Ю 8 н/о н/о +32.0 +19.3 47 +38 +38 очень
душно
1006.0 993.3
07 5.12 Ю 5 н/о н/о +32.4 +19.6 47 +38 +38 очень
душно
1005.1 992.4
09 5.12 З 4 н/о н/о +33.1 +19.9 46 +39 +39 очень
душно
1004.1 991.4
10 5.12 СЗ 5 н/о н/о +31.5 +19.8 50 +38 +38 очень
душно
1005.2 992.5
12 5.12 СЗ 3 н/о н/о +28.9 +20.4 60 +36 +36 очень
душно
1006.1 993.4
13 5.12 С 3 н/о н/о +27.5 +20.6 66 +34 +34 очень
душно
1006.3 993.6 +41.3
15 5.12 ЮЗ 3 н/о н/о +28.7 +20.4 61 +35 +35 очень
душно
1006.3 993.6
16 5.12 ЮЗ 3 н/о н/о +28.6 +20.6 62 +35 +35 очень
душно
1005.7 993.0
18 5.12 штиль 0 н/о н/о +26.4 +20.9 72 +33 +33 очень
душно
1005.5 992.8
19 5.12 З 2 н/о н/о +25.3 +21.0 77 +32 +32 очень
душно
1005.5 992.8
21 5.12 С 2 н/о н/о +25.1 +21.0 78 +32 +32 очень
душно
1006.5 993.8
22 5.12 С 2 н/о н/о +27.0 +21.3 71 +34 +34 очень
душно
1007.5 994.7
00 6.12 Ю 3 н/о н/о +33.2 +20.0 46 +39 +39 очень
душно
1007.8 995.0
01 6.12 Ю 3 н/о н/о +36.4 +20.6 40 +43 +43 опасность
перегрева
1007.4 994.6 +25.1
03 6.12 ЮВ 4 н/о н/о +40.6 +16.7 25 +43 +43 опасность
перегрева
1005.2 992.5
04 6.12 ЮВ 3 н/о н/о +41.8 +15.7 22 +43 +43 опасность
перегрева
1004.0 991.3
06 6.12 Ю 3 н/о н/о +44.1 +8.3 12 +42 +42 опасность
перегрева
1001.6 988.9
07 6.12 Ю 5 н/о н/о +44.0 +7.0 11 +42 +42 опасность
перегрева
1000.8 988.1
09 6.12 СВ 2 н/о н/о +42.7 +8.4 13 +41 +41 опасность
перегрева
1000.5 987.8
10 6.12 штиль 0 н/о н/о +39.8 +11.0 18 +39 +39 очень
жарко
1001.1 988.4
12 6.12 ЮЗ 3 н/о н/о +37.5 +12.8 23 +37 +37 очень
жарко
1002.7 990.0
13 6.12 ЮЗ 3 н/о н/о +35.4 +14.1 28 +36 +36 очень
жарко
1003.2 990.5 +44.9
15 6.12 З 3 н/о н/о +31.5 +15.5 38 +34 +34 душно 1003.2 990.5
16 6.12 З 4 н/о н/о +32.1 +16.8 40 +35 +35 очень
душно
1002.8 990.1
18 6.12 СЗ 3 н/о н/о +29.2 +17.7 50 +34 +34 очень
душно
1003.0 990.3
19 6.12 З 3 н/о н/о +28.3 +18.7 56 +33 +33 очень
душно
1003.2 990.5
21 6.12 С 3 н/о н/о +26.1 +18.5 63 +31 +31 очень
душно
1003.7 991.0
22 6.12 СЗ 2 н/о н/о +29.0 +19.3 56 +35 +35 очень
душно
1004.4 991.7
00 7.12 З 4 н/о н/о +36.6 +17.2 32 +40 +40 очень
душно
1004.6 991.9
01 7.12 ЮЗ 3 н/о н/о +38.5 +16.2 27 +40 +40 очень
душно
1004.5 991.8 +26.0
03 7.12 Ю 3 н/о н/о +42.0 +13.6 19 +42 +42 опасность
перегрева
1002.9 990.2
04 7.12 ЮВ 2 н/о н/о +43.6 +9.1 13 +42 +42 опасность
перегрева
1002.1 989.4
06 7.12 С 3 н/о н/о +43.8 +5.5 10 +41 +41 опасность
перегрева
1000.4 987.7
07 7.12 СВ 3 н/о н/о +44.1 +5.7 10 +41 +41 опасность
перегрева
999.9 987.2
09 7.12 СВ 2 н/о н/о +43.9 +5.5 10 +41 +41 опасность
перегрева
999.7 987.0
10 7.12 штиль 0 н/о н/о +41.5 +8.6 14 +39 +39 очень
жарко
1000.1 987.4
12 7.12 штиль 0 н/о н/о +35.8 +10.1 21 +35 +35 очень
жарко
1001.2 988.5
13 7.12 штиль 0 н/о н/о +34.3 +11.4 25 +34 +34 очень
жарко
1001.9 989.2 +46.5
15 7.12 З 2 н/о н/о +31.1 +13.4 34 +32 +32 жарко 1002.1 989.4
16 7.12 СЗ 3 н/о н/о +32.7 +16.1 37 +35 +35 душно 1001.6 988.9
18 7.12 штиль 0 н/о н/о +30.1 +19.8 54 +36 +36 очень
душно
1001.2 988.5
21 7.12 С 4 н/о н/о +27.9 +21.7 69 +36 +36 очень
душно
1003.0 990.3
00 8.12 С 4 н/о н/о +35.7 +20.8 42 +43 +43 опасность
перегрева
1004.5 991.8
01 8.12 С 3 н/о н/о +37.9 +19.8 35 +43 +43 опасность
перегрева
1004.6 991.9 +28.0
03 8.12 СВ 5 н/о н/о +43.0 +13.6 18 +43 +43 опасность
перегрева
1003.3 990.6
04 8.12 СВ 5 н/о н/о +44.3 +8.5 12 +42 +42 опасность
перегрева
1002.4 989.7
06 8.12 С 5 н/о н/о +44.9 +7.7 11 +43 +43 опасность
перегрева
1000.7 988.0
07 8.12 В 2 н/о н/о +45.9 +7.0 10 +43 +43 опасность
перегрева
999.8 987.1
09 8.12 В 4 н/о н/о +44.1 +7.1 11 +42 +42 опасность
перегрева
999.9 987.2
10 8.12 С 3 н/о н/о +42.0 +9.0 14 +40 +40 очень
жарко
1000.5 987.8
12 8.12 С 13 н/о н/о +41.4 +7.4 13 +39 +39 очень
жарко
1001.5 988.8
13 8.12 СЗ 8 н/о н/о +36.1 +21.5 43 +44 +44 опасность
перегрева
1003.1 990.4 +46.6
15 8.12 СЗ 4 н/о н/о +33.7 +20.8 47 +41 +41 опасность
перегрева
1004.9 992.2
16 8.12 СЗ 10 н/о туман н/о +27.7 +20.8 66 +35 +35 очень
душно
1005.5 992.8
18 8.12 В 6 н/о н/о +28.7 +20.2 60 +35 +35 очень
душно
1006.3 993.6
19 8.12 В 6 н/о {туман} н/о +29.1 +18.2 52 +34 +34 очень
душно
1006.2 993.5
21 8.12 СВ 5 н/о н/о +32.9 +15.4 35 +35 +35 душно 1004.4 991.7
22 8.12 С 6 н/о {туман} н/о +30.5 +17.9 47 +35 +35 очень
душно
1003.9 991.2
00 9.12 С 3 н/о н/о +33.1 +22.5 54 +43 +43 опасность
перегрева
1006.4 993.7
01 9.12 СЗ 2 н/о {туман} н/о +35.4 +21.6 45 +43 +43 опасность
перегрева
1006.6 993.9 +25.5
03 9.12 В 2 н/о н/о +39.4 +22.0 37 +47 +47 опасность
перегрева
1005.3 992.6
04 9.12 ЮЗ 4 н/о н/о +41.1 +19.5 29 +46 +46 опасность
перегрева
1004.4 991.7
06 9.12 С 6 н/о н/о +42.5 +17.0 23 +45 +45 опасность
перегрева
1002.3 989.6
07 9.12 Ю 1 н/о н/о +43.7 +16.5 21 +46 +46 опасность
перегрева
1001.2 988.5
09 9.12 штиль 0 н/о н/о +43.6 +14.9 19 +44 +44 опасность
перегрева
1000.9 988.2
10 9.12 штиль 0 н/о н/о +40.4 +17.2 26 +43 +43 опасность
перегрева
1001.8 989.1
12 9.12 СЗ 4 н/о н/о +33.6 +21.4 49 +41 +41 опасность
перегрева
1003.6 990.9
13 9.12 СЗ 4 н/о н/о +32.6 +20.2 48 +39 +39 очень
душно
1004.0 991.3 +44.0
15 9.12 СЗ 6 н/о н/о +31.0 +20.9 55 +38 +38 очень
душно
1004.8 992.1
16 9.12 З 4 н/о н/о +30.3 +21.9 61 +39 +39 очень
душно
1004.4 991.7
18 9.12 СЗ 4 н/о н/о +28.6 +23.5 74 +39 +39 очень
душно
1004.0 991.3
19 9.12 З 4 н/о н/о +28.5 +23.9 76 +39 +39 очень
душно
1004.6 991.9
21 9.12 З 4 н/о н/о +28.0 +23.8 78 +39 +39 очень
душно
1006.1 993.4
22 9.12 СЗ 5 н/о н/о +28.8 +24.1 76 +40 +40 очень
душно
1006.6 993.9
00 10.12 З 6 н/о н/о +32.1 +23.9 62 +44 +44 опасность
перегрева
1007.4 994.6
01 10.12 З 7 н/о н/о +35.2 +23.5 51 +46 +46 опасность
перегрева
1006.7 994.0 +27.9
03 10.12 ЮЗ 4 н/о н/о +38.2 +20.5 36 +44 +44 опасность
перегрева
1005.0 992.3
04 10.12 ЮЗ 4 н/о н/о +40.5 +19.5 30 +45 +45 опасность
перегрева
1004.0 991.3
06 10.12 Ю 3 н/о н/о +42.9 +13.5 18 +43 +43 опасность
перегрева
1001.9 989.2
07 10.12 СЗ 2 н/о н/о +43.4 +11.1 15 +42 +42 опасность
перегрева
1001.4 988.7
09 10.12 Ю 1 н/о н/о +42.1 +11.1 16 +41 +41 опасность
перегрева
1001.1 988.4
10 10.12 штиль 0 н/о н/о +40.1 +12.8 20 +40 +40 очень
жарко
1001.5 988.8
12 10.12 СЗ 3 н/о н/о +35.6 +17.3 34 +39 +39 очень
душно
1003.1 990.4
13 10.12 СЗ 2 н/о н/о +35.2 +17.9 36 +39 +39 очень
душно
1003.4 990.7 +44.0
15 10.12 З 5 н/о н/о +34.3 +19.9 43 +40 +40 очень
душно
1003.3 990.6
16 10.12 З 6 н/о н/о +33.8 +22.2 51 +43 +43 опасность
перегрева
1003.0 990.3
18 10.12 З 4 н/о н/о +31.1 +23.0 62 +41 +41 опасность
перегрева
1002.8 990.1
19 10.12 СЗ 4 н/о н/о +29.9 +23.6 69 +41 +41 опасность
перегрева
1003.3 990.6
21 10.12 СЗ 5 н/о н/о +28.9 +24.0 75 +40 +40 очень
душно
1005.0 992.3
22 10.12 З 7 н/о н/о +29.4 +24.0 73 +41 +41 опасность
перегрева
1006.4 993.7
00 11.12 СЗ 7 н/о н/о +32.2 +24.0 62 +44 +44 опасность
перегрева
1006.7 994.0
01 11.12 СЗ 6 н/о н/о +34.3 +23.3 53 +45 +45 опасность
перегрева
1006.5 993.8 +28.6
03 11.12 З 5 н/о н/о +38.3 +21.5 38 +46 +46 опасность
перегрева
1005.0 992.3
04 11.12 СЗ 3 н/о н/о +39.5 +20.7 34 +46 +46 опасность
перегрева
1003.8 991.1
06 11.12 З 3 н/о н/о +42.8 +15.0 20 +44 +44 опасность
перегрева
1001.8 989.1
07 11.12 З 3 н/о н/о +44.1 +12.6 16 +44 +44 опасность
перегрева
1001.1 988.4

 

Местоположение метеостанции Fitzroy Crossing Aero (Западная Австралия, Австралия): широта -18.18 долгота 125.56 высота над уровнем моря 115 м.

В архиве по умолчанию представлена погода в Fitzroy Crossing Aero за последнюю неделю. Архивные данные за месяц целиком и за предыдущие месяцы, начиная с января 2011 года, Вы можете получить, выбрав интересующий диапазон дат из раскрывающегося списка и нажав кнопку "Ввод!".


*Определитесь, кто Вы:
робот инопланетянин человек

Внимание! Время в таблицах - всемирное. Для получения местного времени необходимо прибавить поправку, которая в Fitzroy Crossing Aero равна 8 ч.

Смотрите также архив погоды в соседних городах и на ближайших метеорологических станциях:

Погода в Curtin Aero (Западная Австралия, Австралия) (196 км)
Погода в Derby Aero (Северная территория, Австралия) (221 км)
Погода в Halls Creek Airport (Западная Австралия, Австралия) (222 км)
Погода в West Roebuck (Западная Австралия, Австралия) (344 км)
Погода в Argyle Aero (Западная Австралия, Австралия) (352 км)
Погода в Broome Airport (Западная Австралия, Австралия) (353 км)
Погода в Adele Island (Западная Австралия, Австралия) (392 км)
Погода в Wyndham Aero (Западная Австралия, Австралия) (406 км)
Погода в Kununurra (Западная Австралия, Австралия) (428 км)
Погода в Kalumburu (Западная Австралия, Австралия) (447 км)

Пояснения к столбцам:

Ветер - указаны скорость ветра в м/с - средняя за 10 мин, порывы в срок и между сроками (в фигурных скобках) и направление, откуда дует ветер: С - северный, СВ - северо-восточный, В - восточный, ЮВ - юго-восточный, Ю - южный, ЮЗ - юго-западный, З - западный, СЗ - северо-западный.
Видимость - горизонтальная дальность видимости в метрах или километрах. При видимости от 1 до 10 км при отсутствии осадков обычно наблюдается дымка, при ухудшении видимости до 1 км и менее - туман. В сухую погоду видимость может ухудшаться дымом, пылью или мглою.
Явления - указаны атмосферные явления, наблюдавшиеся в срок или в последний час перед сроком; фигурными скобками обозначены явления, наблюдавшиеся между сроками (за 1-3 часа до срока); квадратными скобками обозначены град или гололедные отложения с указанием их диаметра в мм.
Облачность - указаны через наклонную черту общая и нижняя облачность в баллах и высота нижней границы облаков в метрах; квадратными скобками обозначены формы облаков: Ci - перистые, Cs - перисто-слоистые, Cc - перисто-кучевые, Ac - высококучевые, As - высокослоистые, Sc - слоисто-кучевые, Ns - слоисто-дождевые, Cu - кучевые, Cb - кучево-дождевые. Подробнее классификацию облаков см. в Атласе облаков (PDF).
T - Температура воздуха - температура, измеренная на высоте 2 м над землей.
Td - Температура точки росы - температура, при понижении до которой содержащийся в воздухе водяной пар достигнет насыщения.
f - Относительная влажность воздуха - влажноcть воздуха, измеренная на высоте 2 м над землей.
Te - Эффективная температура - температура, которую ощущает одетый по сезону человек в тени. Характеристика душности погоды. При расчете учитывается влияние влажности воздуха и скорости ветра на теплоощущения человека.
Tes - Эффективная температура на солнце - температура, которую ощущает человек, с поправкой на солнечный нагрев. Характеристика знойности погоды. Зависит от высоты солнца над горизонтом, облачности и скорости ветра. Ночью, в пасмурную погоду, а также при ветре 12 м/с и более поправка равна нулю.
P - Атмосферное давление - приведенное к уровню моря атмосферное давление.
Po - Атмосферное давление - измеренное на уровне метеостанции атмосферное давление.
Tmin - Минимальная температура - минимум температуры воздуха на высоте 2 м над землей.
Tmax - Максимальная температура - максимум температуры воздуха на высоте 2 м над землей.
R - Количество осадков - Количество выпавших осадков за период времени, мм. При наведении курсора мыши на число - период времени, за который выпало указанное количество осадков.
R24 - Количество осадков - Количество выпавших осадков за 24 часа, мм.
S - Снежный покров - Высота снежного покрова, см. При наведении курсора мыши на число - состояние снежного покрова и степень покрытия местности в баллах.